Weather History for KWVI - March, 2012

Change the Weather History Date:

Wednesday, March 28, 2012

  Actual Average Record
Temperature  
Mean Temperature 59 °F 54 °F  
Max Temperature 64 °F 64 °F 83 °F (2004)
Min Temperature 53 °F 43 °F 35 °F (2007)
Degree Days  
Heating Degree Days 6    
Month to date heating degree days 290  
Since 1 July heating degree days 2095  
Cooling Degree Days 0    
Month to date cooling degree days 0  
Year to date cooling degree days 0  
Growing Degree Days 8 (Base 50)    
Moisture  
Dew Point 51 °F    
Average Humidity 76    
Maximum Humidity 89    
Minimum Humidity 63    
Precipitation  
Precipitation 0.04 in - 2.18 in (1974)
Month to date precipitation 4.55  
Year to date precipitation 8.15  
Since 1 July precipitation 12.44  
Sea Level Pressure  
Sea Level Pressure 30.09 in    
Wind  
Wind Speed 5 mph (SSW)    
Max Wind Speed 15 mph    
Max Gust Speed 43 mph    
Visibility 6 miles    
Events Fog , Rain    
T = Trace of Precipitation, MM = Missing Value Source: NWS Daily Summary

Daily Weather History Graph

Daily Weather History Graph

Search for Another Location

Airport or City:

Trip Planner

Search our weather history database for the weather conditions in past years. The results will help you decide how hot, cold, wet, or windy it might be!

Date:

Astronomy

Mar. 28, 2012 Rise Set
Actual Time 6:57 AM PDT 7:26 PM PDT
Civil Twilight 6:31 AM PDT 7:52 PM PDT
Nautical Twilight 6:01 AM PDT 8:23 PM PDT
Astronomical Twilight 5:30 AM PDT 8:54 PM PDT
Moon 10:26 AM PDT (3/28) 12:25 AM PDT (3/28)
Length of Visible Light 13h 20m
Length of Day
12h 28m
Waxing Crescent, 31% of the Moon is Illuminated
Mar 28
Waxing Crescent
Mar 30
First Quarter
Apr 6
Full
Apr 13
Last Quarter
Apr 21
New

Hourly Weather History & Observations

Time (PDT) Temp. Dew Point Humidity Pressure Visibility Wind Dir Wind Speed Gust Speed Precip Events Conditions
12:11 AM 55.4 °F 50.0 °F 82% 30.01 in 10.0 mi SE 3.5 mph - 0.00 in   Overcast
12:46 AM 55.4 °F 50.0 °F 82% 30.01 in 10.0 mi Calm Calm - 0.00 in   Overcast
12:53 AM 55.9 °F 50.0 °F 80% 30.01 in 9.0 mi Calm Calm - 0.00 in Rain Light Rain
1:53 AM 55.9 °F 51.1 °F 84% 30.01 in 10.0 mi South 9.2 mph - 0.02 in   Overcast
2:05 AM 57.2 °F 51.8 °F 82% 30.01 in 10.0 mi South 10.4 mph - N/A   Overcast
2:38 AM 57.2 °F 51.8 °F 82% 30.02 in 9.0 mi South 13.8 mph - N/A   Overcast
2:51 AM 57.2 °F 51.8 °F 82% 30.02 in 8.0 mi South 11.5 mph 20.7 mph 0.00 in Rain Light Rain
2:53 AM 57.0 °F 52.0 °F 83% 30.02 in 9.0 mi South 12.7 mph 20.7 mph 0.00 in Rain Light Rain
3:00 AM 57.2 °F 51.8 °F 82% 30.02 in 10.0 mi South 13.8 mph - 0.00 in   Overcast
3:53 AM 57.0 °F 52.0 °F 83% 30.02 in 9.0 mi South 9.2 mph - 0.00 in   Overcast
4:16 AM 57.2 °F 51.8 °F 82% 30.02 in 9.0 mi SSE 6.9 mph - N/A   Overcast
4:53 AM 57.0 °F 52.0 °F 83% 30.02 in 10.0 mi SSE 5.8 mph - 0.00 in   Overcast
5:07 AM 57.2 °F 51.8 °F 82% 30.03 in 10.0 mi SSE 5.8 mph - N/A   Overcast
5:53 AM 57.0 °F 52.0 °F 83% 30.04 in 6.0 mi South 8.1 mph - N/A   Haze
6:53 AM 55.9 °F 51.1 °F 84% 30.05 in 10.0 mi SSE 3.5 mph - 0.01 in   Overcast
7:33 AM 55.4 °F 51.8 °F 88% 30.06 in 10.0 mi Calm Calm - N/A   Overcast
7:53 AM 57.0 °F 51.1 °F 81% 30.07 in 10.0 mi Calm Calm - N/A   Overcast
8:53 AM 57.0 °F 51.1 °F 81% 30.09 in 10.0 mi East 3.5 mph 42.6 mph 0.00 in   Overcast
9:18 AM 57.2 °F 51.8 °F 82% 30.10 in 4.0 mi Calm Calm - 0.01 in Rain Light Rain
9:53 AM 57.9 °F 52.0 °F 81% 30.10 in 10.0 mi ENE 4.6 mph - 0.01 in   Overcast
10:53 AM 60.1 °F 52.0 °F 75% 30.11 in 10.0 mi Calm Calm - N/A   Overcast
11:13 AM 60.8 °F 53.6 °F 77% 30.12 in 10.0 mi Variable 3.5 mph - 0.00 in Rain Light Rain
11:32 AM 60.8 °F 51.8 °F 72% 30.12 in 10.0 mi Calm Calm - 0.00 in   Overcast
11:53 AM 62.1 °F 53.1 °F 72% 30.12 in 10.0 mi Variable 4.6 mph - 0.00 in   Overcast
12:05 PM 62.6 °F 51.8 °F 68% 30.12 in 10.0 mi SSW 5.8 mph - N/A   Overcast
12:53 PM 62.1 °F 53.1 °F 72% 30.12 in 10.0 mi SSW 12.7 mph 16.1 mph N/A   Mostly Cloudy
1:10 PM 62.6 °F 53.6 °F 72% 30.12 in 10.0 mi SW 10.4 mph - N/A   Mostly Cloudy
1:35 PM 60.8 °F 53.6 °F 77% 30.12 in 10.0 mi SW 11.5 mph - N/A   Overcast
1:53 PM 63.0 °F 54.0 °F 72% 30.12 in 10.0 mi SW 5.8 mph - N/A   Overcast
2:31 PM 62.6 °F 53.6 °F 72% 30.12 in 10.0 mi WSW 8.1 mph - N/A   Mostly Cloudy
2:53 PM 62.1 °F 53.1 °F 72% 30.12 in 10.0 mi SW 6.9 mph - N/A   Overcast
3:49 PM 62.6 °F 51.8 °F 68% 30.11 in 10.0 mi WSW 6.9 mph - N/A   Scattered Clouds
3:53 PM 64.0 °F 52.0 °F 65% 30.11 in 10.0 mi WSW 6.9 mph - N/A   Partly Cloudy
4:53 PM 62.1 °F 52.0 °F 70% 30.11 in 10.0 mi WSW 8.1 mph - N/A   Clear
5:53 PM 57.9 °F 52.0 °F 81% 30.09 in 10.0 mi SSW 10.4 mph - N/A   Clear
6:03 PM 57.2 °F 51.8 °F 82% 30.09 in 7.0 mi SSW 8.1 mph - N/A   Scattered Clouds
6:09 PM 55.4 °F 51.8 °F 88% 30.09 in 1.8 mi SSW 6.9 mph - N/A   Haze
6:17 PM 55.4 °F 51.8 °F 88% 30.09 in 1.0 mi South 6.9 mph - N/A   Haze
6:25 PM 55.4 °F 51.8 °F 88% 30.09 in 0.8 mi SSW 5.8 mph - N/A   Haze
6:53 PM 55.0 °F 51.1 °F 86% 30.10 in 0.2 mi SSW 3.5 mph - N/A Fog Fog
7:14 PM 53.6 °F 50.0 °F 88% 30.11 in 0.5 mi Calm Calm - N/A Fog Fog
7:37 PM 53.6 °F 50.0 °F 88% 30.10 in 1.2 mi Calm Calm - N/A   Overcast
7:53 PM 54.0 °F 50.0 °F 86% 30.12 in 1.2 mi Calm Calm - N/A   Overcast
8:04 PM 53.6 °F 50.0 °F 88% 30.12 in 2.0 mi Calm Calm - N/A   Overcast
8:19 PM 53.6 °F 50.0 °F 88% 30.11 in 3.0 mi Calm Calm - N/A   Overcast
8:32 PM 53.6 °F 50.0 °F 88% 30.12 in 2.0 mi Calm Calm - N/A   Overcast
8:40 PM 53.6 °F 50.0 °F 88% 30.12 in 1.5 mi Calm Calm - N/A   Overcast
8:48 PM 53.6 °F 50.0 °F 88% 30.12 in 1.0 mi Calm Calm - N/A   Mist
8:53 PM 54.0 °F 50.0 °F 86% 30.13 in 1.2 mi Calm Calm - N/A   Overcast
8:58 PM 53.6 °F 50.0 °F 88% 30.13 in 2.0 mi Calm Calm - N/A   Overcast
9:14 PM 55.4 °F 50.0 °F 82% 30.13 in 3.0 mi Calm Calm - N/A   Haze
9:21 PM 53.6 °F 50.0 °F 88% 30.13 in 2.0 mi Calm Calm - N/A   Overcast
9:32 PM 55.4 °F 50.0 °F 82% 30.13 in 4.0 mi Calm Calm - N/A   Haze
9:38 PM 53.6 °F 50.0 °F 88% 30.13 in 1.8 mi Calm Calm - N/A   Overcast
9:53 PM 54.0 °F 50.0 °F 86% 30.13 in 2.0 mi SSE 3.5 mph - N/A   Overcast
10:18 PM 53.6 °F 50.0 °F 88% 30.14 in 1.2 mi SSW 3.5 mph - N/A   Overcast
10:27 PM 53.6 °F 50.0 °F 88% 30.14 in 0.5 mi SSW 4.6 mph - N/A Fog Fog
10:53 PM 54.0 °F 50.0 °F 86% 30.14 in 0.5 mi WSW 3.5 mph - N/A Fog Fog
11:02 PM 53.6 °F 50.0 °F 88% 30.14 in 0.2 mi Calm Calm - N/A Fog Fog
11:09 PM 53.6 °F 50.0 °F 88% 30.14 in 0.5 mi Calm Calm - N/A Fog Fog
11:29 PM 53.6 °F 48.2 °F 82% 30.15 in 1.2 mi West 4.6 mph - N/A   Overcast
11:34 PM 53.6 °F 50.0 °F 88% 30.15 in 2.0 mi WSW 3.5 mph - N/A   Overcast
11:43 PM 53.6 °F 48.2 °F 82% 30.15 in 3.0 mi Calm Calm - N/A   Overcast
11:53 PM 54.0 °F 48.9 °F 83% 30.14 in 4.0 mi Calm Calm - N/A   Haze